sat.trackr.live / text

‹ back to catalog

STARLINK-6029

NORAD 56803 · 2023-078AN

PAYLOAD ACTIVE UNKNOWN

§ Identity

Operator
Country
US
Launch date
2023-05-31
Launch site
AFWTR
Launch vehicle
Mass (kg)
RCS (m²)

Purposes: comms

External: N2YO · Heavens-Above · Gunter

§ Orbital elements

Epoch: 2026-09-20T13:56:06.425088Z

Period
96.11 min
Inclination
69.9995°
Eccentricity
0.0003361
Mean motion
14.98331515 rev/d
Perigee alt
569.7 km
Apogee alt
574.4 km
Semi-major
6,950.2 km
B*
-3.6258e-6
RAAN
213.0373°
Arg perigee
270.1872°
Mean anomaly
89.8902°
Rev number
18,187

§ Raw data

STARLINK-60291 56803U 23078AN  26263.58062992 -.00000136  00000+0 -36258-5 0  99922 56803  69.9995 213.0373 0003361 270.1872  89.8902 14.98331515181871

JSON: /api/v1/satellites/56803 · /tle

For live sub-satellite position, see the globe view (requires WebGL).

§ Visibility from observer

Set your observer location to see the next 7 days of passes ≥ 10°. The values pass through the URL so the page stays shareable.

No JS? Fill the form by hand. The geolocation button needs JavaScript.